Home   Weather   Landshut   Past weeks

Flag for Germany Past Weather in Landshut, Bavaria, Germany — Yesterday and Last 2 Weeks

48 °F

Light rain. Partly cloudy.

Feels Like: 46 °F
Forecast: 39 / 57 °F
Wind: 6 mph from Southeast

Location: Munich / Franz Josef Strauss Airport

Current Time: Oct 23, 2016 at 10:34:10 PM

Latest Report: Oct 23, 2016 at 9:50 PM

Visibility: N/A

Pressure: 29.92 "Hg

Humidity: 94%

Dew Point: 46 °F

Location of LandshutLocation

Past Weather in Landshut — Graph


Landshut Temperature Yesterday

Maximum temperature yesterday: 52 °F (at 2:20 PM)
Minimum temperature yesterday: 32 °F (at 11:50 PM)
Average temperature yesterday: 43 °F

High & Low Weather Summary for the Past Weeks

High66 °F (Oct 16, 3:50 PM)100% (Oct 8, 9:20 PM)30.24 "Hg (Oct 8, 9:20 PM)
Low28 °F (Oct 23, 5:20 AM)47% (Oct 9, 3:20 PM)29.65 "Hg (Oct 14, 11:20 PM)
Average46 °F89%30.04 "Hg
* Reported Oct 8 9:20 PM — Oct 23 9:20 PM, Landshut, Weather by CustomWeather, © 2016

Note: Actual official high and low records may vary slightly from our data, if they occured in-between our weather recording intervals... More about our weather records


Landshut Weather History for the Previous 24 Hours

Scroll right to see more
Time TempWeatherWind HumidityBarometerVisibility
9:20 PM
Sun, Oct 23
48 °FLight rain. Partly cloudy.5 mph94%29.92 "HgN/A
8:50 PM48 °FLight rain. Partly cloudy.2 mph94%29.92 "HgN/A
8:20 PM46 °FLight rain. Passing clouds.3 mph100%29.92 "HgN/A
7:50 PM48 °FLight rain. Passing clouds.1 mph94%29.92 "HgN/A
7:20 PM48 °FClear.1 mph87%29.89 "Hg10 mi
6:50 PM50 °FClear.3 mph82%29.89 "Hg10 mi
6:20 PM50 °FPassing clouds.3 mph82%29.89 "HgN/A
5:50 PM52 °FPartly sunny.3 mph77%29.89 "HgN/A
5:20 PM52 °FPartly sunny.5 mph72%29.89 "HgN/A
4:50 PM52 °FLight rain. Broken clouds.6 mph72%29.89 "HgN/A
4:20 PM54 °FLight rain. Clear.2 mph67%29.89 "HgN/A
3:50 PM54 °FSunny.5 mph67%29.89 "Hg10 mi
3:20 PM54 °FPassing clouds.7 mph67%29.86 "HgN/A
2:50 PM54 °FSunny.8 mph67%29.86 "Hg10 mi
2:20 PM54 °FPassing clouds.8 mph63%29.89 "HgN/A
1:50 PM52 °FSunny.10 mph67%29.89 "Hg10 mi
1:20 PM52 °FPassing clouds.7 mph72%29.89 "HgN/A
12:50 PM50 °FPassing clouds.8 mph71%29.92 "HgN/A
12:20 PM48 °FPassing clouds.8 mph76%29.92 "HgN/A
11:50 AM46 °FPassing clouds.8 mph82%29.92 "HgN/A
11:20 AM43 °FBroken clouds.6 mph93%29.92 "HgN/A
10:50 AM41 °FBroken clouds.6 mph100%29.92 "Hg4 mi
10:20 AM39 °FPartly sunny.5 mph100%29.92 "Hg4 mi
9:50 AM36 °FFog.3 mph100%29.95 "Hg2 mi
9:20 AM32 °FChilly.2 mph100%29.95 "Hg1 mi
8:50 AM32 °FChilly.2 mph100%29.95 "Hg1 mi
8:20 AM30 °FSleet. Cloudy.2 mph100%29.95 "Hg1 mi
7:50 AM30 °FSleet. Cloudy.2 mph100%29.92 "Hg1 mi
7:20 AM28 °FSleet. Overcast.3 mph100%29.92 "Hg1 mi
6:50 AM30 °FSleet. Overcast.1 mph100%29.92 "Hg1 mi
6:20 AM30 °FChilly.2 mph100%29.92 "Hg2 mi
5:50 AM28 °FChilly.1 mph100%29.92 "Hg2 mi
5:20 AM28 °FChilly.2 mph100%29.95 "Hg2 mi
4:50 AM30 °FChilly.1 mph100%29.95 "Hg2 mi
4:20 AM30 °FChilly.2 mph100%29.95 "Hg3 mi
3:50 AM30 °FChilly.1 mph100%29.95 "Hg3 mi
3:20 AM30 °FChilly.No wind100%29.95 "Hg3 mi
2:50 AM30 °FChilly.1 mph100%29.95 "Hg6 mi
2:20 AM30 °FClear.1 mph100%29.95 "HgN/A
1:50 AM30 °FChilly.1 mph100%29.95 "HgN/A
1:20 AM32 °FLight fog.1 mph100%29.98 "HgN/A
12:50 AM32 °FFog.1 mph100%29.98 "HgN/A
12:20 AM34 °FFog.No wind100%29.98 "HgN/A
11:50 PM
Sat, Oct 22
32 °FFog.No wind100%29.98 "HgN/A
11:20 PM34 °FPassing clouds.1 mph100%29.98 "HgN/A
10:50 PM36 °FPassing clouds.2 mph100%29.98 "HgN/A
10:20 PM36 °FPassing clouds.1 mph100%29.98 "HgN/A
Weather by CustomWeather, © 2016

See weather overviewHow to use our weather pages